Regional Weather Roundup
Issued by NWS

Home | Current Version | Previous Version | Text Only | Print | Product List | Glossary Off
Versions: 1 2 3 4 5 6 7 8 9 10 11 12 13 14 15 16 17 18 19 20 21 22 23 24 25 26 27 28 29 30 31 32 33 34 35 36 37 38 39 40 41 42 43 44 45 46 47 48 49 50

000
ASUS43 KFSD 260702
RWRSD

WEATHER ROUNDUP FOR SOUTH DAKOTA
NATIONAL WEATHER SERVICE SIOUX FALLS SD
100 AM CST SUN FEB 26 2017

NOTE: "FAIR" INDICATES FEW OR NO CLOUDS BELOW 12,000 FEET WITH NO
SIGNIFICANT WEATHER AND/OR OBSTRUCTIONS TO VISIBILITY.


SDZ001>005-009-010-012>017-260800-
NORTHWEST AND NORTH CENTRAL SOUTH DAKOTA

CITY           SKY/WX    TMP DP  RH WIND       PRES   REMARKS
BUFFALO          N/A     17  13  84 W10       29.60S WCI   5
FAITH            N/A     21  19  92 W12       29.69S WCI   9
MOBRIDGE       MOCLDY    24  19  81 CALM      29.66S
$$

SDZ012>016-024>037-041>051-057-063-072>074-260800-
SOUTHWEST AND SOUTH CENTRAL SOUTH DAKOTA

CITY           SKY/WX    TMP DP  RH WIND       PRES   REMARKS
RAPID CTY ARPT CLEAR     17  10  74 W9        29.71S WCI   6
PIERRE         PTCLDY    25  19  78 W9        29.72S WCI  15
CUSTER         CLEAR     12   3  67 W6        29.63F WCI   3
ELLSWORTH AFB  CLEAR     18  12  77 W10       29.71R WCI   7
PHILIP         CLEAR     19  16  88 W9        29.74S WCI   8
PINE RIDGE     CLEAR     14   6  70 W3        29.77R
SPEARFISH      FAIR      21  10  63 W10       29.68S WCI  10
WINNER         FAIR      21  12  68 SW10      29.75S WCI  10
$$

SDZ004>011-016>023-039-040-260800-
NORTHEAST SOUTH DAKOTA

CITY           SKY/WX    TMP DP  RH WIND       PRES   REMARKS
ABERDEEN       LGT SNOW  24  21  88 SW6       29.71S FOG     WCI  17
WATERTOWN      CLOUDY    24  23  96 SW8       29.69F WCI  15
BROOKINGS      CLEAR     21  18  88 SW7       29.73S WCI  12
SISSETON         N/A     19  18  95 SW6       29.70F WCI  11
$$

SDZ017-020-022-023-036>040-048>070-260800-
SOUTHEAST SOUTH DAKOTA

CITY           SKY/WX    TMP DP  RH WIND       PRES   REMARKS
SIOUX FALLS    CLEAR     21  17  84 SW3       29.76F
HURON          CLOUDY    25  23  92 SW3       29.74F
CHAMBERLAIN    PTCLDY    27  23  85 SW5       29.75S WCI  21
MITCHELL       MOCLDY    26  21  81 SW8       29.76F WCI  18
YANKTON        PTCLDY    19  12  73 SW3       29.81R
$$

ABBREVIATIONS USED IN REMARKS
   TC - TEMPERATURE IN CELSIUS
  WCI - WIND CHILL INDEX
   HX - HEAT INDEX
  VSB - VISIBILITY





USA.gov is the U.S. government's official web portal to all federal, state and local government web resources and services.